Time,TemperatureF,DewpointF,PressureIn,WindDirection,WindDirectionDegrees,WindSpeedMPH,WindSpeedGustMPH,Humidity,HourlyPrecipIn,Conditions,Clouds,dailyrainin,SoftwareType,DateUTC
2013-07-03 00:05:00,74.6,71.1,30.16,WSW,245,3.0,8.0,89,0.00,RA,,0.00,WeatherDisplay:10.37,2013-07-03 04:05:00,
2013-07-03 00:10:00,74.5,71.1,30.16,SW,231,5.0,10.0,89,0.00,SCT,,0.00,WeatherDisplay:10.37,2013-07-03 04:10:00,
2013-07-03 00:20:00,74.3,70.9,30.16,SW,219,0.0,2.0,89,0.00,SCT,,0.00,WeatherDisplay:10.37,2013-07-03 04:20:00,
2013-07-03 00:35:00,74.0,70.6,30.16,WSW,243,3.0,12.0,89,0.00,SCT,,0.00,WeatherDisplay:10.37,2013-07-03 04:35:00,
2013-07-03 00:40:00,74.1,70.6,30.15,SW,233,5.0,7.0,89,0.00,SCT,,0.00,WeatherDisplay:10.37,2013-07-03 04:40:00,
2013-07-03 00:50:00,74.0,70.2,30.16,West,263,3.0,10.0,88,0.00,SCT,,0.00,WeatherDisplay:10.37,2013-07-03 04:50:00,
2013-07-03 00:55:00,73.9,70.1,30.16,West,264,5.0,8.0,88,0.00,SCT,,0.00,WeatherDisplay:10.37,2013-07-03 04:55:00,
2013-07-03 01:05:00,73.7,69.9,30.16,West,268,3.0,14.0,88,0.00,CLR,,0.00,WeatherDisplay:10.37,2013-07-03 05:05:00,
2013-07-03 01:10:00,73.7,70.0,30.17,West,265,6.0,11.0,88,0.00,CLR,,0.00,WeatherDisplay:10.37,2013-07-03 05:10:00,
2013-07-03 01:20:00,73.6,69.9,30.17,WSW,249,3.0,9.0,88,0.00,CLR,,0.00,WeatherDisplay:10.37,2013-07-03 05:20:00,
2013-07-03 01:25:00,73.5,69.7,30.16,WSW,249,3.0,12.0,88,0.00,CLR,,0.00,WeatherDisplay:10.37,2013-07-03 05:25:00,
2013-07-03 01:40:00,73.5,69.7,30.17,West,268,3.0,9.0,88,0.00,CLR,,0.00,WeatherDisplay:10.37,2013-07-03 05:40:00,
2013-07-03 01:50:00,73.3,69.5,30.17,WSW,258,2.0,9.0,88,0.00,CLR,,0.00,WeatherDisplay:10.37,2013-07-03 05:50:00,
2013-07-03 02:05:00,73.1,69.3,30.17,West,277,5.0,9.0,88,0.00,CLR,,0.00,WeatherDisplay:10.37,2013-07-03 06:05:00,
2013-07-03 02:10:00,73.0,69.2,30.17,West,279,3.0,9.0,88,0.00,CLR,,0.00,WeatherDisplay:10.37,2013-07-03 06:10:00,
2013-07-03 02:35:00,72.9,69.1,30.17,West,274,3.0,6.0,88,0.00,CLR,,0.00,WeatherDisplay:10.37,2013-07-03 06:35:00,
2013-07-03 02:40:00,72.9,69.1,30.17,West,280,3.0,9.0,88,0.00,CLR,,0.00,WeatherDisplay:10.37,2013-07-03 06:40:00,
2013-07-03 02:50:00,72.8,69.1,30.17,WNW,289,3.0,6.0,88,0.00,CLR,,0.00,WeatherDisplay:10.37,2013-07-03 06:50:00,
2013-07-03 02:55:00,72.8,69.3,30.17,WNW,282,3.0,7.0,89,0.00,CLR,,0.00,WeatherDisplay:10.37,2013-07-03 06:55:00,
2013-07-03 03:05:00,72.6,69.1,30.17,West,262,2.0,7.0,89,0.00,CLR,,0.00,WeatherDisplay:10.37,2013-07-03 07:05:00,
2013-07-03 03:10:00,72.6,69.2,30.17,West,269,3.0,6.0,89,0.00,CLR,,0.00,WeatherDisplay:10.37,2013-07-03 07:10:00,
2013-07-03 03:20:00,72.5,69.1,30.17,West,264,3.0,9.0,89,0.00,CLR,,0.00,WeatherDisplay:10.37,2013-07-03 07:20:00,
2013-07-03 03:25:00,72.5,69.0,30.17,West,265,3.0,7.0,89,0.00,CLR,,0.00,WeatherDisplay:10.37,2013-07-03 07:25:00,
2013-07-03 03:35:00,72.3,68.9,30.17,West,263,6.0,12.0,89,0.00,CLR,,0.00,WeatherDisplay:10.37,2013-07-03 07:35:00,
2013-07-03 03:40:00,72.3,69.2,30.17,West,260,5.0,8.0,90,0.00,CLR,,0.00,WeatherDisplay:10.37,2013-07-03 07:40:00,
2013-07-03 03:50:00,72.5,69.4,30.17,West,265,6.0,10.0,90,0.00,CLR,,0.00,WeatherDisplay:10.37,2013-07-03 07:50:00,
2013-07-03 03:55:00,72.5,69.1,30.17,WSW,256,3.0,10.0,89,0.00,CLR,,0.00,WeatherDisplay:10.37,2013-07-03 07:55:00,
2013-07-03 04:05:00,72.5,69.1,30.17,West,259,5.0,10.0,89,0.00,CLR,,0.00,WeatherDisplay:10.37,2013-07-03 08:05:00,
2013-07-03 04:10:00,72.6,69.2,30.17,West,264,2.0,9.0,89,0.00,CLR,,0.00,WeatherDisplay:10.37,2013-07-03 08:10:00,
2013-07-03 04:20:00,72.6,69.2,30.17,West,263,3.0,7.0,89,0.00,CLR,,0.00,WeatherDisplay:10.37,2013-07-03 08:20:00,
2013-07-03 04:40:00,72.5,69.0,30.18,West,273,7.0,12.0,89,0.00,SCT,,0.00,WeatherDisplay:10.37,2013-07-03 08:40:00,
2013-07-03 04:50:00,72.4,69.0,30.18,West,278,3.0,9.0,89,0.00,SCT,,0.00,WeatherDisplay:10.37,2013-07-03 08:50:00,
2013-07-03 04:55:00,72.4,69.0,30.18,West,279,3.0,13.0,89,0.00,SCT,,0.00,WeatherDisplay:10.37,2013-07-03 08:55:00,
2013-07-03 05:10:00,72.4,68.9,30.18,WSW,258,5.0,8.0,89,0.00,CLR,,0.00,WeatherDisplay:10.37,2013-07-03 09:10:00,
2013-07-03 05:20:00,72.4,69.0,30.19,West,273,3.0,8.0,89,0.00,CLR,,0.00,WeatherDisplay:10.37,2013-07-03 09:20:00,
2013-07-03 05:35:00,72.1,68.7,30.19,West,269,3.0,7.0,89,0.00,CLR,,0.00,WeatherDisplay:10.37,2013-07-03 09:35:00,
2013-07-03 05:40:00,72.3,69.2,30.19,West,268,2.0,6.0,90,0.00,CLR,,0.00,WeatherDisplay:10.37,2013-07-03 09:40:00,
2013-07-03 05:55:00,72.1,69.0,30.19,West,276,3.0,7.0,90,0.00,CLR,,0.00,WeatherDisplay:10.37,2013-07-03 09:55:00,
2013-07-03 06:05:00,72.1,69.0,30.19,WSW,254,1.0,10.0,90,0.00,SCT,,0.00,WeatherDisplay:10.37,2013-07-03 10:05:00,
2013-07-03 06:10:00,72.3,69.2,30.19,WSW,254,5.0,8.0,90,0.00,SCT,,0.00,WeatherDisplay:10.37,2013-07-03 10:10:00,
2013-07-03 06:20:00,72.5,69.0,30.20,West,278,3.0,8.0,89,0.00,SCT,,0.00,WeatherDisplay:10.37,2013-07-03 10:20:00,
2013-07-03 06:35:00,72.8,69.4,30.20,WSW,250,2.0,6.0,89,0.00,SCT,,0.00,WeatherDisplay:10.37,2013-07-03 10:35:00,
2013-07-03 06:55:00,73.0,69.2,30.20,WSW,252,2.0,7.0,88,0.00,SCT,,0.00,WeatherDisplay:10.37,2013-07-03 10:55:00,
2013-07-03 07:05:00,73.1,69.4,30.21,West,261,3.0,8.0,88,0.00,SCT,,0.00,WeatherDisplay:10.37,2013-07-03 11:05:00,
2013-07-03 07:20:00,73.2,69.5,30.21,WSW,249,2.0,9.0,88,0.00,SCT,,0.00,WeatherDisplay:10.37,2013-07-03 11:20:00,
2013-07-03 07:40:00,73.2,69.5,30.22,West,264,1.0,5.0,88,0.00,SCT,,0.00,WeatherDisplay:10.37,2013-07-03 11:40:00,
2013-07-03 07:50:00,73.4,69.9,30.22,West,267,1.0,3.0,89,0.00,SCT,,0.00,WeatherDisplay:10.37,2013-07-03 11:50:00,
2013-07-03 08:05:00,73.5,69.7,30.22,WSW,256,1.0,5.0,88,0.00,FEW,,0.00,WeatherDisplay:10.37,2013-07-03 12:05:00,
2013-07-03 08:25:00,73.8,70.0,30.22,West,259,3.0,7.0,88,0.00,FEW,,0.00,WeatherDisplay:10.37,2013-07-03 12:25:00,
2013-07-03 08:35:00,74.1,70.3,30.22,WSW,255,2.0,7.0,88,0.00,FEW,,0.00,WeatherDisplay:10.37,2013-07-03 12:35:00,
2013-07-03 08:40:00,74.4,70.3,30.22,WSW,245,1.0,8.0,87,0.00,FEW,,0.00,WeatherDisplay:10.37,2013-07-03 12:40:00,
2013-07-03 08:50:00,74.7,70.2,30.22,West,267,2.0,10.0,86,0.00,FEW,,0.00,WeatherDisplay:10.37,2013-07-03 12:50:00,
2013-07-03 09:05:00,75.7,70.8,30.22,West,264,3.0,7.0,85,0.00,FEW,,0.00,WeatherDisplay:10.37,2013-07-03 13:05:00,
2013-07-03 09:10:00,76.5,71.0,30.22,West,261,5.0,8.0,83,0.00,FEW,,0.00,WeatherDisplay:10.37,2013-07-03 13:10:00,
2013-07-03 09:20:00,77.7,70.7,30.21,WSW,256,5.0,10.0,79,0.00,FEW,,0.00,WeatherDisplay:10.37,2013-07-03 13:20:00,
2013-07-03 09:25:00,77.9,70.4,30.21,West,261,5.0,13.0,78,0.00,FEW,,0.00,WeatherDisplay:10.37,2013-07-03 13:25:00,
2013-07-03 09:35:00,78.5,71.5,30.21,WSW,256,7.0,10.0,79,0.00,SCT,,0.00,WeatherDisplay:10.37,2013-07-03 13:35:00,
2013-07-03 09:40:00,78.9,71.1,30.21,West,260,5.0,9.0,77,0.00,SCT,,0.00,WeatherDisplay:10.37,2013-07-03 13:40:00,
2013-07-03 09:50:00,79.1,70.5,30.21,West,272,6.0,12.0,75,0.00,SCT,,0.00,WeatherDisplay:10.37,2013-07-03 13:50:00,
2013-07-03 10:05:00,78.8,69.8,30.21,West,268,5.0,12.0,74,0.00,SCT,,0.00,WeatherDisplay:10.37,2013-07-03 14:05:00,
2013-07-03 10:10:00,79.2,71.0,30.21,West,275,8.0,14.0,76,0.00,SCT,,0.00,WeatherDisplay:10.37,2013-07-03 14:10:00,
2013-07-03 10:50:00,81.4,70.3,30.21,West,265,7.0,13.0,69,0.00,SCT,,0.00,WeatherDisplay:10.37,2013-07-03 14:50:00,
2013-07-03 11:05:00,81.9,70.7,30.21,WSW,240,5.0,10.0,69,0.00,SCT,,0.00,WeatherDisplay:10.37,2013-07-03 15:05:00,
2013-07-03 11:10:00,82.0,70.8,30.21,SW,234,8.0,13.0,69,0.00,SCT,,0.00,WeatherDisplay:10.37,2013-07-03 15:10:00,
2013-07-03 11:20:00,82.3,69.8,30.21,West,259,10.0,15.0,66,0.00,SCT,,0.00,WeatherDisplay:10.37,2013-07-03 15:20:00,
2013-07-03 11:50:00,82.1,71.4,30.21,WSW,248,7.0,12.0,70,0.00,SCT,,0.00,WeatherDisplay:10.37,2013-07-03 15:50:00,
2013-07-03 11:55:00,82.1,71.3,30.21,WSW,257,3.0,8.0,70,0.00,SCT,,0.00,WeatherDisplay:10.37,2013-07-03 15:55:00,
2013-07-03 12:05:00,81.3,70.2,30.21,WSW,239,7.0,11.0,69,0.00,BKN,,0.00,WeatherDisplay:10.37,2013-07-03 16:05:00,
2013-07-03 12:10:00,81.0,70.8,30.21,WSW,254,5.0,10.0,71,0.00,BKN,,0.00,WeatherDisplay:10.37,2013-07-03 16:10:00,
2013-07-03 12:20:00,80.9,71.0,30.21,SW,229,2.0,7.0,72,0.00,BKN,,0.00,WeatherDisplay:10.37,2013-07-03 16:20:00,
2013-07-03 12:35:00,80.9,71.4,30.21,SW,233,3.0,6.0,73,0.00,BKN,,0.00,WeatherDisplay:10.37,2013-07-03 16:35:00,
2013-07-03 12:40:00,80.9,71.9,30.21,SW,222,1.0,9.0,74,0.00,BKN,,0.00,WeatherDisplay:10.37,2013-07-03 16:40:00,
2013-07-03 12:50:00,81.0,71.6,30.20,SW,219,2.0,7.0,73,0.00,BKN,,0.00,WeatherDisplay:10.37,2013-07-03 16:50:00,
2013-07-03 13:05:00,82.2,71.4,30.20,SW,235,1.0,8.0,70,0.00,SCT,,0.00,WeatherDisplay:10.37,2013-07-03 17:05:00,
2013-07-03 13:10:00,82.8,72.9,30.20,WSW,238,5.0,7.0,72,0.00,SCT,,0.00,WeatherDisplay:10.37,2013-07-03 17:10:00,
2013-07-03 13:20:00,82.3,71.5,30.20,West,260,5.0,9.0,70,0.00,SCT,,0.00,WeatherDisplay:10.37,2013-07-03 17:20:00,
2013-07-03 13:35:00,82.0,72.9,30.20,SW,224,3.0,11.0,74,0.00,SCT,,0.00,WeatherDisplay:10.37,2013-07-03 17:35:00,
2013-07-03 13:40:00,82.1,71.7,30.20,WSW,254,5.0,10.0,71,0.00,SCT,,0.00,WeatherDisplay:10.37,2013-07-03 17:40:00,
2013-07-03 13:50:00,81.9,72.0,30.20,SW,228,3.0,10.0,72,0.00,SCT,,0.00,WeatherDisplay:10.37,2013-07-03 17:50:00,
2013-07-03 14:05:00,82.0,71.3,30.19,SW,231,5.0,10.0,70,0.00,SCT,,0.00,WeatherDisplay:10.37,2013-07-03 18:05:00,
2013-07-03 14:10:00,82.7,72.3,30.19,WSW,240,6.0,11.0,71,0.00,SCT,,0.00,WeatherDisplay:10.37,2013-07-03 18:10:00,
2013-07-03 14:20:00,83.1,71.8,30.19,SW,218,2.0,10.0,69,0.00,BKN,,0.00,WeatherDisplay:10.37,2013-07-03 18:20:00,
2013-07-03 14:35:00,82.8,72.0,30.19,West,259,3.0,6.0,70,0.00,BKN,,0.00,WeatherDisplay:10.37,2013-07-03 18:35:00,
2013-07-03 14:50:00,83.1,71.4,30.19,WSW,253,3.0,12.0,68,0.00,BKN,,0.00,WeatherDisplay:10.37,2013-07-03 18:50:00,
2013-07-03 15:10:00,82.2,71.5,30.18,WSW,242,5.0,11.0,70,0.00,-RA,,0.00,WeatherDisplay:10.37,2013-07-03 19:10:00,
2013-07-03 15:20:00,83.1,71.8,30.18,WSW,249,5.0,7.0,69,0.00,-RA,,0.00,WeatherDisplay:10.37,2013-07-03 19:20:00,
2013-07-03 15:35:00,82.4,71.6,30.18,WSW,250,3.0,12.0,70,0.00,-RA,,0.00,WeatherDisplay:10.37,2013-07-03 19:35:00,
2013-07-03 15:40:00,82.4,71.2,30.17,WSW,244,6.0,9.0,69,0.00,-RA,,0.00,WeatherDisplay:10.37,2013-07-03 19:40:00,
2013-07-03 15:50:00,82.0,71.7,30.17,SW,232,3.0,9.0,71,0.00,-RA,,0.00,WeatherDisplay:10.37,2013-07-03 19:50:00,
2013-07-03 16:05:00,82.0,71.7,30.17,WSW,258,5.0,7.0,71,0.00,FEW,,0.00,WeatherDisplay:10.37,2013-07-03 20:05:00,
2013-07-03 16:10:00,82.1,71.3,30.17,WSW,242,3.0,8.0,70,0.00,FEW,,0.00,WeatherDisplay:10.37,2013-07-03 20:10:00,
2013-07-03 16:25:00,82.5,71.7,30.17,WSW,251,3.0,7.0,70,0.00,FEW,,0.00,WeatherDisplay:10.37,2013-07-03 20:25:00,
2013-07-03 16:35:00,82.8,72.4,30.17,WSW,247,3.0,8.0,71,0.00,FEW,,0.00,WeatherDisplay:10.37,2013-07-03 20:35:00,
2013-07-03 16:50:00,83.6,71.9,30.17,WSW,245,5.0,8.0,68,0.00,FEW,,0.00,WeatherDisplay:10.37,2013-07-03 20:50:00,
2013-07-03 17:10:00,81.9,71.6,30.17,WSW,238,6.0,12.0,71,0.00,SCT,,0.00,WeatherDisplay:10.37,2013-07-03 21:10:00,
2013-07-03 17:20:00,82.0,71.7,30.17,WSW,249,3.0,9.0,71,0.00,SCT,,0.00,WeatherDisplay:10.37,2013-07-03 21:20:00,
2013-07-03 17:35:00,82.0,71.7,30.17,WSW,253,5.0,8.0,71,0.00,SCT,,0.00,WeatherDisplay:10.37,2013-07-03 21:35:00,
2013-07-03 17:40:00,82.0,71.6,30.17,SW,229,3.0,7.0,71,0.00,SCT,,0.00,WeatherDisplay:10.37,2013-07-03 21:40:00,
2013-07-03 17:50:00,81.8,72.3,30.17,WSW,257,3.0,6.0,73,0.00,SCT,,0.00,WeatherDisplay:10.37,2013-07-03 21:50:00,
2013-07-03 18:05:00,80.9,71.9,30.17,West,265,2.0,5.0,74,0.00,FEW,,0.00,WeatherDisplay:10.37,2013-07-03 22:05:00,
2013-07-03 18:10:00,80.9,72.6,30.17,WNW,289,2.0,5.0,76,0.00,FEW,,0.00,WeatherDisplay:10.37,2013-07-03 22:10:00,
2013-07-03 18:20:00,80.7,72.5,30.17,WSW,251,2.0,5.0,76,0.00,FEW,,0.00,WeatherDisplay:10.37,2013-07-03 22:20:00,
2013-07-03 18:35:00,80.8,72.5,30.17,SSW,212,0.0,5.0,76,0.00,FEW,,0.00,WeatherDisplay:10.37,2013-07-03 22:35:00,
2013-07-03 18:50:00,80.5,72.3,30.17,South,189,1.0,3.0,76,0.00,FEW,,0.00,WeatherDisplay:10.37,2013-07-03 22:50:00,
2013-07-03 19:05:00,80.2,72.7,30.17,SW,236,2.0,3.0,78,0.00,BKN,,0.00,WeatherDisplay:10.37,2013-07-03 23:05:00,
2013-07-03 19:10:00,80.0,72.5,30.18,SW,226,1.0,3.0,78,0.00,BKN,,0.00,WeatherDisplay:10.37,2013-07-03 23:10:00,
2013-07-03 19:20:00,80.0,72.9,30.17,SSE,162,0.0,3.0,79,0.00,BKN,,0.00,WeatherDisplay:10.37,2013-07-03 23:20:00,
2013-07-03 19:35:00,79.5,72.8,30.18,SW,236,1.0,5.0,80,0.00,BKN,,0.00,WeatherDisplay:10.37,2013-07-03 23:35:00,
2013-07-03 19:50:00,79.3,73.0,30.18,WSW,248,0.0,5.0,81,0.00,BKN,,0.00,WeatherDisplay:10.37,2013-07-03 23:50:00,
2013-07-03 20:05:00,78.8,72.4,30.18,SW,226,2.0,6.0,81,0.00,FEW,,0.00,WeatherDisplay:10.37,2013-07-04 00:05:00,
2013-07-03 20:10:00,78.6,72.7,30.19,SSW,212,0.0,3.0,82,0.00,FEW,,0.00,WeatherDisplay:10.37,2013-07-04 00:10:00,
2013-07-03 20:25:00,78.4,72.5,30.19,ENE,69,2.0,5.0,82,0.00,FEW,,0.00,WeatherDisplay:10.37,2013-07-04 00:25:00,
2013-07-03 20:35:00,78.1,72.1,30.19,SSW,207,1.0,5.0,82,0.00,FEW,,0.00,WeatherDisplay:10.37,2013-07-04 00:35:00,
2013-07-03 20:40:00,77.8,71.9,30.19,SSE,158,1.0,6.0,82,0.00,FEW,,0.00,WeatherDisplay:10.37,2013-07-04 00:40:00,
2013-07-03 20:50:00,77.8,71.8,30.19,SSW,199,1.0,7.0,82,0.00,FEW,,0.00,WeatherDisplay:10.37,2013-07-04 00:50:00,
2013-07-03 21:10:00,77.3,71.8,30.19,SSW,213,0.0,0.0,83,0.00,CLR,,0.00,WeatherDisplay:10.37,2013-07-04 01:10:00,
2013-07-03 21:20:00,77.0,71.4,30.20,SSW,213,0.0,0.0,83,0.00,CLR,,0.00,WeatherDisplay:10.37,2013-07-04 01:20:00,
2013-07-03 21:35:00,76.7,71.5,30.20,WSW,248,0.0,0.0,84,0.00,CLR,,0.00,WeatherDisplay:10.37,2013-07-04 01:35:00,
2013-07-03 21:50:00,76.3,71.8,30.21,WSW,248,0.0,0.0,86,0.00,CLR,,0.00,WeatherDisplay:10.37,2013-07-04 01:50:00,
2013-07-03 22:10:00,75.6,71.5,30.21,NE,56,0.0,1.0,87,0.00,BKN,,0.00,WeatherDisplay:10.37,2013-07-04 02:10:00,
2013-07-03 22:20:00,75.3,71.5,30.21,SW,217,0.0,2.0,88,0.00,BKN,,0.00,WeatherDisplay:10.37,2013-07-04 02:20:00,
2013-07-03 22:40:00,75.0,71.2,30.20,NNE,28,0.0,0.0,88,0.00,BKN,,0.00,WeatherDisplay:10.37,2013-07-04 02:40:00,
2013-07-03 22:50:00,75.0,71.5,30.20,NNE,28,0.0,0.0,89,0.00,BKN,,0.00,WeatherDisplay:10.37,2013-07-04 02:50:00,
2013-07-03 23:05:00,74.5,71.3,30.20,NNE,28,0.0,0.0,90,0.00,CLR,,0.00,WeatherDisplay:10.37,2013-07-04 03:05:00,
2013-07-03 23:10:00,74.3,71.2,30.21,NNE,28,0.0,0.0,90,0.00,CLR,,0.00,WeatherDisplay:10.37,2013-07-04 03:10:00,
2013-07-03 23:25:00,74.3,71.2,30.21,NNE,28,0.0,0.0,90,0.00,CLR,,0.00,WeatherDisplay:10.37,2013-07-04 03:25:00,
2013-07-03 23:35:00,74.1,71.0,30.21,NNE,28,0.0,0.0,90,0.00,CLR,,0.00,WeatherDisplay:10.37,2013-07-04 03:35:00,
2013-07-03 23:40:00,74.0,71.2,30.21,NNE,28,0.0,0.0,91,0.00,CLR,,0.00,WeatherDisplay:10.37,2013-07-04 03:40:00,
2013-07-03 23:50:00,73.9,71.1,30.22,NNE,20,1.0,4.0,91,0.00,CLR,,0.00,WeatherDisplay:10.37,2013-07-04 03:50:00,